NOAA 16 DEB, 41258

Orbit data source: Space-Track

NOAA 16 DEB, 41258 is space debris in SSO originally from a launch on Thu, 21 Sep 2000 UTC launched from the Air Force Western Test Range (AFWTR). Debris objects in space refer to the collection of defunct objects orbiting the Earth. Examples of debris include non-operational satellites, rocket bodies, and fragments generated from explosions, collisions, or faulty payload assembly.

Loading next visibility...
Identifier
41258, 2000-055FJ
Orbit
SSO
Country
Flag of USUS
Related business
Manufacturer
Unknown
Mission
Spacecraft
Bus & Motor
Unknown
Mass
Unknown
Launch date (UTC)
2000-09-21 (25 years ago)
Launch vehicle
Unknown
Launch site
Air Force Western Test Range (AFWTR)
Object type
Payload
Rocket body
Debris
Shape & HBR
Unknown shape, 0.1 m
Radar Cross Section
Small (<0.1 m²)

Expand to show TLE details & history
Last TLE update: 1 day ago

TLE from 1 day ago
0 NOAA 16 DEB
1 41258U 00055FJ  25347.14465705  .00018978  00000-0  40531-2 0  9991
2 41258  98.9896 231.7142 0039052 261.9505  97.7260 14.58402970519408
Epoch: 2025-12-13T03:28Z
TLE epoch observation values (Epoch: 2025-12-13T03:28:18.369Z)
Latitude
0.00001°
Longitude
97.56152°
Altitude
705.115 km
Speed
7.501 km/s
True Right ascension
15h 26m 51s
True Declination
0° 00' 00"
Sunlit
Object was in daylight at epoch
Visualization orbit readout
Latitude
Unknown
Longitude
Unknown
Altitude
Unknown
Speed
Unknown
Apparent Right ascension
Unknown
Apparent Declination
Unknown
Sunlit
N/A
Visualization observer readout
Local Sidereal Time
01:39:34
Azimuth
Unknown
Elevation
Unknown
Doppler factor
Unknown
Orbital elements
Apogee altitude
723.08 km
Perigee altitude
667.833 km
Semi-major axis
7,073.594 km
Eccentricity
0.00391
Inclination
98.9896°
RAAN
231.7142°
Arg. of periapsis
261.9505°
True anomaly
98.16915°
Mean anomaly
97.726°
Eccentric anomaly
97.9476°
Mean motion
3.64824 °/min
Orbital period
98.68 mins
BSTAR
0.0040531
Loading maneuver chart data...
Computing Atmospheric mass density...

Documentation

Showing up to 5 results
|